Location: Banff
(51.1667°N, 115.5667°W)
Time: 20:23:18
(UTC+00:00)

Vanguard 2 - Pass Details

Date: 05 December 2020
Orbit: 553 x 2937 km, 32.9° (Epoch: 16 January)

Event Time Altitude Azimuth Distance (km) Brightness Sun altitude
Rises 13:49:43 0° 203° (SSW) 5,589 11.9 -14.8°
Maximum altitude 13:59:32 10° 162° (SSE) 3,667 11.5 -13.4°
Drops below altitude 10° 13:59:34 10° 162° (SSE) 3,663 11.5 -13.4°
Sets 14:06:46 0° 116° (ESE) 3,868 13.2 -12.3°
